Location: *
(57.8420°S, 159.8600°W)
Time: 05:23:49
(UTC+00:00)

SL-16 R/B - Pass Details

Date: 18 May 2021
Orbit: 842 x 847 km, 71.0° (Epoch: 20 June)

Event Time Altitude Azimuth Distance (km) Brightness Sun altitude
Rises 05:29:30 0° 342° (NNW) 3,406 5.6 -23.6°
Reaches altitude 10° 05:31:58 10° 345° (NNW) 2,478 4.8 -23.9°
Enters shadow 05:37:17 57° 51° (NE) 1,003 2.2 -24.6°
